Orbital Elements at Epoch 2459000.5 (2020-May-31.0) TDB
Reference: JPL 12 (heliocentric ecliptic J2000)
Element | Value | Uncertainty (1-sigma) | Units |
e | .06877421352326044 | 9.0648e-08 | |
a | 2.867545580250424 | 3.7829e-08 | au |
q | 2.6703323882266 | 2.75e-07 | au |
i | 1.378371128929109 | 8.8938e-06 | deg |
node | 213.6092262715008 | 0.00033985 | deg |
peri | 193.0253843921429 | 0.00034924 | deg |
M | 72.99075060909738 | 8.0017e-05 | deg |
tp | 2458640.892077863152 (2019-Jun-06.39207786) | 0.00039061 | TDB |
period | 1773.633657538108 4.86 | 3.5097e-05 9.609e-08 | d yr |
n | .202973144127011 | 4.0164e-09 | deg/d |
Q | 3.064758772274249 | 4.043e-08 | au |
|
| | Orbit Determination Parameters
Additional Information
|